Location: Bernay
(48.6766°N, 2.9386°E)
Time: 18:26:31
(UTC+00:00)

DNEPR-1 R/B - Visible Passes

Search period start: 11 April 2026 00:00
Search period end: 21 April 2026 00:00
Orbit: 583 x 1330 km, 64.6° (Epoch: 11 April)

Date Brightness Start Highest point End Pass type
(mag) Time Alt. Az. Time Alt. Az. Time Alt. Az.
11 Apr 6.6 00:59:15 10° NNW 01:01:05 12° N 01:03:01 10° NNE visible
11 Apr 6.6 02:47:15 10° NNW 02:50:27 17° NNE 02:53:58 10° ENE visible
11 Apr 4.7 21:45:57 34° NNE 21:45:57 34° NNE 21:48:35 10° NE visible
11 Apr 6.2 23:30:03 13° WNW 23:32:14 18° NNW 23:35:26 10° NNE visible
12 Apr 6.7 01:19:39 10° NNW 01:21:31 12° N 01:23:28 10° NNE visible
12 Apr 6.5 03:06:45 10° NNW 03:10:39 23° NNE 03:15:06 10° E visible
12 Apr 5.1 20:18:58 18° ENE 20:18:58 18° ENE 20:20:33 10° ENE visible
12 Apr 4.6 22:02:59 36° WNW 22:03:58 42° NW 22:08:14 10° NNE visible
12 Apr 6.6 23:50:07 10° NW 23:52:31 14° NNW 23:55:03 10° NNE visible
13 Apr 6.8 01:39:32 10° NNW 01:41:55 13° NNE 01:44:28 10° NE visible
13 Apr 6.0 03:26:14 10° NNW 03:30:44 32° NE 03:36:02 10° E visible
13 Apr 3.5 20:32:22 10° SSW 20:36:26 51° ESE 20:40:40 10° NE visible
13 Apr 5.6 22:20:18 10° W 22:23:56 27° NW 22:27:49 10° NNE visible
14 Apr 6.8 00:10:58 10° NNW 00:12:53 12° N 00:14:54 10° NNE visible
14 Apr 6.7 01:59:09 10° NNW 02:02:16 16° NNE 02:05:40 10° ENE visible
14 Apr 5.3 03:45:44 10° NNW 03:50:41 47° NE 03:56:39 10° ESE visible
14 Apr 3.4 20:51:51 10° SW 20:56:03 83° NW 21:00:29 10° NE visible
14 Apr 6.2 22:40:57 10° WNW 22:44:03 19° NNW 22:47:22 10° NNE visible
15 Apr 6.9 00:31:27 10° NNW 00:33:18 12° N 00:35:15 10° NNE visible
15 Apr 6.5 02:18:39 10° NNW 02:22:29 22° NNE 02:26:50 10° E visible
15 Apr 4.5 04:05:18 10° NW 04:10:31 74° NE 04:16:54 10° SE visible
15 Apr 4.5 19:25:34 10° SSE 19:28:55 23° ESE 19:32:21 10° ENE visible
15 Apr 4.5 21:11:47 10° WSW 21:15:50 46° NW 21:20:09 10° NNE visible
15 Apr 6.6 23:01:48 10° NW 23:04:19 15° NNW 23:06:58 10° NNE visible
16 Apr 6.9 00:51:25 10° NNW 00:53:43 13° NNE 00:56:11 10° NE visible
16 Apr 6.1 02:38:08 10° NNW 02:42:35 30° NE 02:47:48 10° E visible
16 Apr 3.7 19:44:21 10° SSW 19:48:22 46° ESE 19:52:31 10° NE visible
16 Apr 5.6 21:32:04 10° W 21:35:46 28° NW 21:39:44 10° NNE visible
16 Apr 6.9 23:22:40 10° NW 23:24:41 13° N 23:26:47 10° NNE visible
17 Apr 6.8 01:11:02 10° NNW 01:14:04 16° NNE 01:17:23 10° ENE visible
17 Apr 5.4 02:57:38 10° NNW 03:02:33 44° NE 03:08:28 10° ESE visible
17 Apr 3.4 20:03:45 10° SW 20:07:56 89° SE 20:12:22 10° NE visible
17 Apr 6.2 21:52:41 10° WNW 21:55:52 20° NNW 21:59:17 10° NNE visible
17 Apr 7.0 23:43:14 10° NNW 23:45:06 12° N 23:47:03 10° NNE visible
18 Apr 6.6 01:30:34 10° NNW 01:34:19 21° NNE 01:38:34 10° ENE visible
18 Apr 4.6 03:17:11 10° NW 03:22:25 69° NE 03:28:47 10° SE visible
18 Apr 4.5 20:23:36 10° WSW 20:27:42 50° NW 20:32:03 10° NNE visible
18 Apr 6.7 22:13:30 10° NW 22:16:07 15° NNW 22:18:53 10° NNE visible
19 Apr 7.0 00:03:15 10° NNW 00:05:31 13° N 00:07:55 10° NE visible
19 Apr 6.1 01:50:03 10° NNW 01:54:27 29° NE 01:59:34 10° E visible
19 Apr 4.2 03:36:50 10° NW 03:42:10 76° SW 03:48:41 10° SSE visible
19 Apr 5.5 20:43:51 10° W 20:47:36 30° NW 20:51:39 10° NNE visible
19 Apr 6.9 22:34:23 10° NW 22:36:29 13° N 22:38:40 10° NNE visible
20 Apr 6.8 00:22:56 10° NNW 00:25:53 16° NNE 00:29:05 10° NE visible
20 Apr 5.4 02:09:32 10° NNW 02:14:25 42° NE 02:20:17 10° ESE visible
20 Apr 4.6 03:56:38 10° NW 04:01:51 47° WSW 04:08:07 10° SSE visible
20 Apr 3.4 19:15:39 10° SW 19:19:50 82° SE 19:24:16 10° NE visible
20 Apr 6.2 21:04:24 10° WNW 21:07:42 21° NNW 21:11:13 10° NNE visible
20 Apr 7.0 22:55:00 10° NNW 22:56:53 12° N 22:58:52 10° NNE visible
